This is the latest recevied weather packets stored in our database for station/object N9BSW. If no packets are shown the sender has not sent any weather packets the latest 10 day(s).
| Time | Temp. | Humidity | Pressure | Rain* | Wind** | Luminosity | Snow |
|---|---|---|---|---|---|---|---|
| 1777413776 | 18.89° C | 65% | 1013.3 hPa | 0 mm | - | 207 W/m² | - |
| 1777413472 | 18.89° C | 63% | 1013.4 hPa | 0 mm | - | 211 W/m² | - |
| 1777413168 | 18.89° C | 63% | 1013.5 hPa | 0 mm | - | 250 W/m² | - |
| 1777412863 | 18.89° C | 63% | 1013.7 hPa | 0 mm | - | 236 W/m² | - |
| 1777412563 | 18.89° C | 63% | 1013.5 hPa | 0 mm | - | 246 W/m² | - |
| 1777412261 | 19.44° C | 60% | 1013.7 hPa | 0 mm | - | 253 W/m² | - |
| 1777411957 | 20° C | 61% | 1013.7 hPa | 0 mm | - | 249 W/m² | - |
| 1777411656 | 20° C | 59% | 1013.5 hPa | 0 mm | - | 305 W/m² | - |
| 1777411351 | 20° C | 59% | 1013.3 hPa | 0 mm | - | 331 W/m² | - |
| 1777411050 | 20° C | 61% | 1013.4 hPa | 0 mm | - | 375 W/m² | - |
| 1777410745 | 20° C | 59% | 1013.5 hPa | 0 mm | - | 436 W/m² | - |
| 1777410439 | 20.56° C | 60% | 1013.4 hPa | 0 mm | - | 528 W/m² | - |
| 1777410139 | 20° C | 61% | 1013.8 hPa | 0 mm | - | 493 W/m² | - |
| 1777409839 | 20.56° C | 59% | 1013.8 hPa | 0 mm | - | 488 W/m² | - |
| 1777409535 | 21.11° C | 57% | 1014.3 hPa | 0 mm | - | 572 W/m² | - |
| 1777409230 | 21.11° C | 59% | 1014.3 hPa | 0 mm | - | 623 W/m² | - |
| 1777408926 | 21.11° C | 56% | 1014.4 hPa | 0 mm | - | 637 W/m² | - |
| 1777408623 | 20.56° C | 62% | 1014.3 hPa | 0 mm | - | 647 W/m² | - |
| 1777408319 | 21.11° C | 56% | 1014.5 hPa | 0 mm | - | 525 W/m² | - |
| 1777408018 | 21.11° C | 56% | 1014.7 hPa | 0 mm | - | 674 W/m² | - |
| 1777407715 | 21.11° C | 59% | 1014.8 hPa | 0 mm | - | 712 W/m² | - |
| 1777407410 | 21.11° C | 60% | 1014.9 hPa | 0 mm | - | 749 W/m² | - |
| 1777407105 | 21.11° C | 60% | 1014.8 hPa | 0 mm | - | 629 W/m² | - |
| 1777406801 | 21.11° C | 58% | 1014.9 hPa | 0 mm | - | 628 W/m² | - |
| 1777406497 | 21.11° C | 57% | 1015.1 hPa | 0 mm | - | 749 W/m² | - |
* Rain latest hour (hover to see other rain measurements)
** Current wind speed in m/s (hover to see current wind gust speed)